COSMOS 2491 DEB, 57566

Orbit data source: Space-Track

COSMOS 2491 DEB, 57566 is space debris in LEO originally from a launch on Wed, 25 Dec 2013 UTC launched from the Plesetsk Missile And Space Complex (PKMTR). Debris objects in space refer to the collection of defunct objects orbiting the Earth. Examples of debris include non-operational satellites, rocket bodies, and fragments generated from explosions, collisions, or faulty payload assembly.

Loading next visibility...
Identifier
57566, 2013-076BD
Orbit
LEO
Country
Flag of CISCIS
Related business
Manufacturer
TsNIIKhM
Mission
Spacecraft
Bus & Motor
Unknown
Mass
Unknown
Launch date (UTC)
2013-12-25 (12 years ago)
Launch vehicle
Unknown
Launch site
Plesetsk Missile And Space Complex (PKMTR)
Object type
Payload
Rocket body
Debris
Shape & HBR
Unknown shape, 0.1 m
Radar Cross Section
Small (<0.1 m²)

Expand to show TLE details & history
Last TLE update: 1 week ago

TLE from 1 week ago
0 COSMOS 2491 DEB
1 57566U 13076BD  26111.34882618  .00001759  00000-0  81628-2 0  9996
2 57566  82.4713 142.0582 0158641 229.8685 128.8423 12.71939524136699
Epoch: 2026-04-21T08:22Z
TLE epoch observation values (Epoch: 2026-04-21T08:22:18.581Z)
Latitude
-0.00006°
Longitude
167.05488°
Altitude
1,455.101 km
Speed
7.099 km/s
True Right ascension
09h 28m 13s
True Declination
0° 00' 00"
Sunlit
Object was in daylight at epoch
Visualization orbit readout
Latitude
Unknown
Longitude
Unknown
Altitude
Unknown
Speed
Unknown
Apparent Right ascension
Unknown
Apparent Declination
Unknown
Sunlit
N/A
Visualization observer readout
Local Sidereal Time
17:00:38
Azimuth
Unknown
Elevation
Unknown
Doppler factor
Unknown
Orbital elements
Apogee altitude
1,494.298 km
Perigee altitude
1,248.421 km
Semi-major axis
7,749.496 km
Eccentricity
0.01586
Inclination
82.4713°
RAAN
142.0582°
Arg. of periapsis
229.8685°
True anomaly
130.24067°
Mean anomaly
128.8423°
Eccentric anomaly
129.54323°
Mean motion
3.18151 °/min
Orbital period
113.15 mins
BSTAR
0.0081628
Loading maneuver chart data...
Computing Atmospheric mass density...
Loading historical data...
Loading historical data...
Loading historical data...
Loading historical data...
Loading historical data...
Loading historical data...
Loading historical data...

Documentation

Showing up to 5 results
|